星链-5584 (STARLINK-5584 )

导读

STARLINK-5584是美国太空探索技术公司 SpaceX 星链(Starlink)星座中的一颗卫星,于2023年3月3日发射入轨。星链星座旨在为全球提供高速低延迟互联网服务,该卫星属于星链批量部署的组网卫星,承担增强星座覆盖容量、提升全球网络服务覆盖能力的任务。

基本信息
目录编号:
55769
目录名称:
STARLINK-5584
国际标识:
2023-028AE
轨道中心:
EARTH
卫星名称:
星链-5584
卫星全名:
星链-5584 (STARLINK-5584 )
卫星状态:
在轨 (已飞行1289 天)
发射日期:
2023-03-03 UTC
国别 :
美国 (US)
星等 :
--
该卫星已列入 空间交会检测服务 Space Conjunction Data Service (SCDS) ,当前飞行风险评估等级: 无高风险
轨道信息
数据来源 国际轨道数据 AOE轨道数据
星历时间 2026-09-12T08:42:56+0800
12小时前
查看轨道信息
2026-09-07T00:00:00+0800
5天前
查看轨道信息
半长轴 6950.192km 6950.186km
偏心率 0.0003008 0.0002597
轨道倾角 69.999° 70.001°
近地点辐角 272.617° 274.035°
升交点赤经 114.686° 128.209°
平近点角 87.465° 325.621°
近地点 569.964km 570.244km
远地点 574.146km 573.854km
周期 96.107分钟 96.107分钟
每日圈数 14.983305 14.983324
详细信息
固有亮度:
5
最大亮度:
2.5
卫星平台:
Starlink v1.5
覆盖范围:
全球
运营商:
太空探索技术公司
运营商所在国:
美国
制造商(研发单位):
太空探索技术公司
制造商所在国:
美国
使用方式:
暂无
卫星简介
星链(Starlink)计划是由太空探索技术公司(SpaceX)提出的一个巨型低轨卫星互联网星座项目,计划在2019年至2024年间在太空搭建由约1.2万颗卫星组成的“星链”网络,其中1584颗将部署在地球上空550千米处的近地轨道,并从2020年开始工作。该卫星仍在工作。
2D轨道图
3D轨道图
轨道高度分析图
轨道倾角分析图
轨道综合分析图
查看轨道综合分析图
交会数据列表
事件ID 空间交会对象 最接近时刻(TCA) 交会距离 交会风险概率(CRP) 交会风险指数(CRI) 操作
CDM_260914-132505-576906-133122
2026-09-14T
13:25:33+0000
0.869 km
远距离
4.358919E-5 中风险 0.68
与全量物体交会距离演化趋势
与全量物体交会风险概率演化趋势